Regional Weather Roundup
Issued by NWS

Home | Current Version | Previous Version | Graphics & Text | Print | Product List | Glossary On
Versions: 1 2 3 4 5 6 7 8 9 10 11 12 13 14 15 16 17 18 19 20 21 22 23 24 25 26 27 28 29 30 31 32 33 34 35 36 37 38 39 40 41 42 43 44 45 46 47 48 49 50
000
ASUS43 KOAX 190902
RWRNE

WEATHER ROUNDUP FOR NEBRASKA
NATIONAL WEATHER SERVICE OMAHA NE
300 AM CST FRI DEC 19 2014

NOTES: SATELLITE DATA IS BEING USED TO AUGMENT CLOUD COVER ABOVE
       12000 FEET.
       "FAIR" INDICATES FEW OR NO CLOUDS BELOW 12,000 FEET WITH NO
       SIGNIFICANT WEATHER AND/OR OBSTRUCTIONS TO VISIBILITY.

  * THESE STATIONS DO NOT REPORT WEATHER SUCH AS RAIN...SNOW OR FOG.

NEZ001>004-019>022-054>056-191000-
NEBRASKA PANHANDLE

CITY           SKY/WX    TMP DP  RH WIND       PRES   REMARKS
SCOTTSBLUFF    PTCLDY     4   0  83 CALM      30.06S
ALLIANCE       PTCLDY     5   2  87 SW3       30.04F
CHADRON        PTCLDY    11   9  92 SW5       30.05S WCI   3
KIMBALL        CLEAR     22  17  82 W8        30.04S WCI  12
SIDNEY         CLEAR     20  15  81 W7        30.07S WCI  11
$$

NEZ057>060-069>072-079>082-191000-
SOUTHWEST NEBRASKA

CITY           SKY/WX    TMP DP  RH WIND       PRES   REMARKS
NORTH PLATTE   PTCLDY    16  12  84 S3        30.11R FOG
IMPERIAL       CLEAR     18  14  84 W5        30.10S WCI  11
MCCOOK         FOG       23  22  96 S6        30.14S VSB 1/4 WCI  16
$$

NEZ005>010-023>029-035>040-094-191000-
NORTH CENTRAL NEBRASKA

CITY           SKY/WX    TMP DP  RH WIND       PRES   REMARKS
VALENTINE      PTCLDY    11   7  84 SW6       30.05S WCI   1
AINSWORTH      PTCLDY    14  12  92 S5        30.06R WCI   6
BROKEN BOW     CLOUDY    26  24  92 SW7       30.11R FOG     WCI  18
$$

NEZ041-046>049-061>064-073>077-083>087-191000-
SOUTH CENTRAL NEBRASKA

CITY           SKY/WX    TMP DP  RH WIND       PRES   REMARKS
GRAND ISLAND   CLOUDY    29  26  89 SW12      30.17F WCI  19
AURORA         CLOUDY    30  28  92 W8        30.17S WCI  23
HASTINGS       CLOUDY    30  26  85 SW8       30.16S WCI  22
KEARNEY *      CLOUDY    28  27  93 S8        30.15S WCI  20
$$

NEZ011>018-030>034-042>045-191000-
NORTHEAST NEBRASKA

CITY           SKY/WX    TMP DP  RH WIND       PRES   REMARKS
NORFOLK        CLOUDY    30  26  85 S9        30.16S WCI  22
BLAIR          CLOUDY    31  28  90 S6        30.21S FOG     WCI  25
COLUMBUS *     CLOUDY    30  25  80 S6        30.20S WCI  24
FREMONT        CLOUDY    32  31  96 S3        30.21S FOG
TEKAMAH        CLOUDY    31  28  89 S7        30.23R WCI  24
$$

NEZ050>053-065>068-078-088>093-191000-
SOUTHEAST NEBRASKA

CITY           SKY/WX    TMP DP  RH WIND       PRES   REMARKS
LINCOLN        CLOUDY    31  29  92 S6        30.24R FOG     WCI  25
OMAHA EPPLEY   CLOUDY    31  28  89 S7        30.25R WCI  24
FALLS CITY     CLOUDY    30  27  88 SW6       30.26R WCI  24
PLATTSMOUTH    CLOUDY    29  27  92 S3        30.23S FOG
$$

NEZ044-045-051>053-067-191000-
OMAHA AREA

CITY           SKY/WX    TMP DP  RH WIND       PRES   REMARKS
OMAHA EPPLEY   CLOUDY    31  28  89 S7        30.25R WCI  24
BLAIR          CLOUDY    31  28  90 S6        30.21S FOG     WCI  25
FREMONT        CLOUDY    32  31  96 S3        30.21S FOG
OFFUTT AFB     MOCLDY    30  28  92 S6        30.24R WCI  24
PLATTSMOUTH    CLOUDY    29  27  92 S3        30.23S FOG
$$



USA.gov is the U.S. government's official web portal to all federal, state and local government web resources and services.